Date String (YYYY-MM-DD hh:mm:ss) UTC,Instrument flags,Ambient pressure (hPa),Sample flow (lpm),Bypass flow (lpm),Sample temperature (°C),Ambient temperature (°C),ASC tube jacket temperature (°C),LED temperature (°C),Box temperature (°C),Sample RH (%),Span deviation,Mass concentration (μg/m³),Mass concentration (μg/m³),Mass concentration (μg/m³)
DateTimeUTC,F1_M11,P_M11,Q1_M11,Q2_M11,T1_M11,T2_M11,T3_M11,T4_M11,T5_M11,U1_M11,ZSPAN_M11,X0_M11,X2_M11,X1_M11
2022-06-21 06:00:00,,0830.2,5.00,0.00,29.7,27.5,00.0,38.5,31.4,09.2,0000.0,0012.57,0004.16,0001.75
2022-06-21 06:01:00,,0830.3,4.99,0.00,29.7,27.7,00.0,38.5,31.4,09.2,0000.0,0012.85,0004.16,0001.74
2022-06-21 06:02:00,,0830.2,4.99,0.00,29.7,27.8,00.0,38.5,31.4,09.1,0000.0,0013.37,0004.23,0001.75
2022-06-21 06:03:00,,0830.2,5.01,0.00,29.6,27.9,00.0,38.5,31.4,09.0,0000.0,0013.26,0004.24,0001.75
2022-06-21 06:04:00,,0830.3,5.00,0.00,29.6,28.1,00.0,38.5,31.4,08.9,0000.0,0012.81,0004.26,0001.75
2022-06-21 06:05:00,,0830.3,5.00,0.00,29.6,28.2,00.0,38.5,31.4,08.9,0000.0,0012.86,0004.24,0001.74
2022-06-21 06:06:00,,0830.4,5.00,0.00,29.7,28.3,00.0,38.5,31.5,08.9,0000.0,0012.95,0004.28,0001.75
2022-06-21 06:07:00,,0830.4,5.00,0.00,29.7,28.4,00.0,38.5,31.5,08.9,0000.0,0011.86,0004.29,0001.76
2022-06-21 06:08:00,,0830.5,4.99,0.00,29.7,28.5,00.0,38.5,31.5,09.1,0000.0,0012.22,0004.31,0001.77
2022-06-21 06:09:00,,0830.4,5.01,0.00,29.7,28.6,00.0,38.5,31.6,09.3,0000.0,0012.65,0004.35,0001.77
2022-06-21 06:10:00,,0830.3,5.00,0.00,29.7,28.6,00.0,38.5,31.6,09.5,0000.0,0012.53,0004.32,0001.77
2022-06-21 06:11:00,,0830.4,5.00,0.00,29.7,28.7,00.0,38.5,31.6,09.9,0000.0,0012.33,0004.28,0001.79
2022-06-21 06:12:00,,0830.4,4.99,0.00,29.8,28.7,00.0,38.5,31.7,10.4,0000.0,0012.11,0004.26,0001.82
2022-06-21 06:13:00,,0830.4,5.00,0.00,29.8,28.8,00.0,38.5,31.7,10.7,0000.0,0012.16,0004.27,0001.80
2022-06-21 06:14:00,,0830.4,5.00,0.00,29.8,28.8,00.0,38.6,31.7,11.2,0000.0,0012.83,0004.40,0001.82
2022-06-21 06:15:00,,0830.4,5.00,0.00,29.8,28.8,00.0,38.6,31.7,11.3,0000.0,0013.92,0004.44,0001.84
2022-06-21 06:16:00,,0830.4,5.01,0.00,29.8,28.8,00.0,38.6,31.7,11.3,0000.0,0014.35,0004.60,0001.86
2022-06-21 06:17:00,,0830.4,5.00,0.00,29.8,28.9,00.0,38.6,31.7,11.4,0000.0,0014.86,0004.71,0001.88
2022-06-21 06:18:00,,0830.4,5.00,0.00,29.8,28.9,00.0,38.6,31.8,11.5,0000.0,0015.15,0004.84,0001.87
2022-06-21 06:19:00,,0830.4,5.00,0.00,29.9,28.9,00.0,38.6,31.8,11.4,0000.0,0015.18,0004.83,0001.86
2022-06-21 06:20:00,,0830.4,5.00,0.00,29.9,28.9,00.0,38.6,31.7,11.4,0000.0,0014.73,0004.80,0001.86
2022-06-21 06:21:00,,0830.4,4.99,0.00,29.9,29.0,00.0,38.6,31.8,11.3,0000.0,0015.61,0004.81,0001.86
2022-06-21 06:22:00,,0830.4,5.00,0.00,29.9,29.0,00.0,38.7,31.8,11.3,0000.0,0016.33,0004.86,0001.86
2022-06-21 06:23:00,,0830.4,5.01,0.00,29.9,29.0,00.0,38.7,31.8,11.4,0000.0,0017.17,0004.91,0001.85
2022-06-21 06:24:00,,0830.4,5.00,0.00,29.9,29.0,00.0,38.7,31.9,11.5,0000.0,0017.57,0004.87,0001.85
2022-06-21 06:25:00,,0830.4,5.00,0.00,30.0,29.1,00.0,38.7,31.9,11.7,0000.0,0017.69,0004.74,0001.84
2022-06-21 06:26:00,,0830.4,4.99,0.00,30.0,29.1,00.0,38.7,31.9,11.8,0000.0,0016.74,0004.69,0001.84
2022-06-21 06:27:00,,0830.4,4.99,0.00,30.0,29.1,00.0,38.7,31.9,11.8,0000.0,0016.17,0004.61,0001.83
2022-06-21 06:28:00,,0830.4,5.01,0.00,30.0,29.0,00.0,38.8,31.9,11.8,0000.0,0016.01,0004.59,0001.80
2022-06-21 06:29:00,,0830.4,5.00,0.00,30.0,28.3,00.0,38.7,31.7,11.7,0000.0,0016.02,0004.60,0001.78
2022-06-21 06:30:00,,0830.5,4.99,0.00,29.9,27.5,00.0,38.6,31.4,11.9,0000.0,0016.61,0004.61,0001.79
2022-06-21 06:31:00,,0830.5,5.00,0.00,29.8,27.3,00.0,38.6,31.4,12.0,0000.0,0015.98,0004.58,0001.79
2022-06-21 06:32:00,,0830.5,5.01,0.00,29.7,27.3,00.0,38.6,31.3,12.0,0000.0,0015.47,0004.61,0001.78
2022-06-21 06:33:00,,0830.6,5.00,0.00,29.7,27.4,00.0,38.5,31.3,12.2,0000.0,0014.63,0004.58,0001.76
2022-06-21 06:34:00,,0830.6,4.99,0.00,29.6,27.6,00.0,38.5,31.3,12.2,0000.0,0014.19,0004.53,0001.75
2022-06-21 06:35:00,,0830.6,5.00,0.00,29.6,27.7,00.0,38.5,31.3,12.4,0000.0,0013.42,0004.61,0001.74
2022-06-21 06:36:00,,0830.6,4.99,0.00,29.6,27.8,00.0,38.5,31.3,12.5,0000.0,0012.79,0004.67,0001.73
2022-06-21 06:37:00,,0830.6,5.00,0.00,29.6,27.9,00.0,38.5,31.4,12.6,0000.0,0012.60,0004.66,0001.72
2022-06-21 06:38:00,,0830.7,5.00,0.00,29.6,28.1,00.0,38.5,31.4,12.6,0000.0,0013.28,0004.67,0001.72
2022-06-21 06:39:00,,0830.8,5.00,0.00,29.6,28.1,00.0,38.5,31.4,12.7,0000.0,0013.95,0004.68,0001.72
2022-06-21 06:40:00,,0830.7,5.00,0.00,29.6,28.2,00.0,38.5,31.4,12.8,0000.0,0013.91,0004.60,0001.69
2022-06-21 06:41:00,,0830.8,4.99,0.00,29.6,28.3,00.0,38.5,31.4,12.8,0000.0,0013.64,0004.52,0001.68
2022-06-21 06:42:00,,0830.8,5.01,0.00,29.6,28.3,00.0,38.5,31.4,12.8,0000.0,0013.66,0004.52,0001.66
2022-06-21 06:43:00,,0830.8,4.98,0.00,29.6,28.3,00.0,38.5,31.3,12.9,0000.0,0013.85,0004.53,0001.64
2022-06-21 06:44:00,,0830.8,5.00,0.00,29.5,28.3,00.0,38.5,31.3,13.0,0000.0,0014.42,0004.60,0001.64
2022-06-21 06:45:00,,0830.9,5.01,0.00,29.5,28.4,00.0,38.4,31.3,13.0,0000.0,0014.66,0004.68,0001.65
2022-06-21 06:46:00,,0830.9,5.01,0.00,29.5,28.4,00.0,38.4,31.3,13.0,0000.0,0014.65,0004.67,0001.66
2022-06-21 06:47:00,,0830.9,5.00,0.00,29.5,28.4,00.0,38.4,31.3,13.0,0000.0,0014.65,0004.64,0001.66
2022-06-21 06:48:00,,0830.9,5.00,0.00,29.5,28.4,00.0,38.4,31.3,13.1,0000.0,0015.38,0004.69,0001.66
2022-06-21 06:49:00,,0830.9,5.00,0.00,29.5,28.4,00.0,38.4,31.3,13.1,0000.0,0015.19,0004.73,0001.66
2022-06-21 06:50:00,,0831.1,4.99,0.00,29.5,28.4,00.0,38.4,31.3,13.1,0000.0,0014.45,0004.67,0001.65
2022-06-21 06:51:00,,0831.1,5.01,0.00,29.5,28.4,00.0,38.4,31.3,13.2,0000.0,0014.23,0004.65,0001.65
2022-06-21 06:52:00,,0831.2,5.01,0.00,29.5,28.5,00.0,38.4,31.3,13.2,0000.0,0014.01,0004.70,0001.63
2022-06-21 06:53:00,,0831.2,4.99,0.00,29.5,28.5,00.0,38.4,31.3,13.2,0000.0,0013.80,0004.74,0001.65
2022-06-21 06:54:00,,0831.2,5.00,0.00,29.5,28.5,00.0,38.4,31.3,13.3,0000.0,0014.07,0004.71,0001.65
2022-06-21 06:55:00,,0831.2,4.99,0.00,29.5,28.5,00.0,38.4,31.3,13.3,0000.0,0014.26,0004.56,0001.63
2022-06-21 06:56:00,,0831.2,5.00,0.00,29.5,28.5,00.0,38.4,31.3,13.4,0000.0,0014.11,0004.50,0001.62
2022-06-21 06:57:00,,0831.2,5.00,0.00,29.5,28.5,00.0,38.4,31.2,13.5,0000.0,0013.90,0004.39,0001.58
2022-06-21 06:58:00,,0831.2,5.01,0.00,29.5,28.4,00.0,38.4,31.2,13.5,0000.0,0013.73,0004.35,0001.58
2022-06-21 06:59:00,,0831.2,4.99,0.00,29.5,28.4,00.0,38.4,31.2,13.6,0000.0,0013.15,0004.28,0001.56
